Friday, August 22, 2014
23:42 UTC
  |  Log In   |  Register Free
Airport Search:

Raton Municipal/Crews Field Airport
(KRTN)

Raton Municipal/Crews Field Airport Diagram
No Airport Diagram Available

FAA data valid effective July 24, 2014 until September 18, 2014 (unless otherwise noted).

 
 
 
 
 
 
 
 
 
 
 
 
 
 

Current Aviation Weather for Raton Municipal/Crews Field Airport (KRTN)

The most recent METAR observation for KRTN was updated at: 0637 UTC
METAR Summary (Translated METAR)
KRTN
280637Z AUTO 20011KT 9SM -RA SCT007 BKN038 OVC095 16/15 A3051 RMK AO2 P0006 T01560150 TSNO
KTAD
(32 nm NE from KRTN)
281854Z AUTO 07006KT 10SM FEW095 24/13 A3037 RMK AO2 SLP206 T02390133
TAF
No TAF information found within 50 nm of KRTN
  Airport Weather Conditions for KRTN

 Current Weather at RTN
72° F
Overcast
East winds at 5.8 mph
RTN NOAA Radar

Pressure: 30.12 in
Humidity: 53%
Wind: East at 5.8 MPH (5 KT)
Dew Point: 54.0°F
Visibility: 10.00 mi


Airport Weather Forecast for KRTN

Translated METAR and TAF for KRTN
Translated METAR for KRTN (2336 UTC 22 August 2014)
found at http://aviationweather.gov/adds/metars/
 
METAR text: KRTN 222253Z AUTO 10005KT 10SM SCT080 OVC110 22/12 A3012 RMK AO2 SLP116 T02220122 TSNO
Conditions at: KRTN (RATON , NM, US) observed 2253 UTC 22 August 2014
Temperature: 22.2°C (72°F)
Dewpoint: 12.2°C (54°F) [RH = 53%]
Pressure (altimeter): 30.12 inches Hg (1020.1 mb)
[Sea-level pressure: 1011.6 mb]
Winds: from the E (100 degrees) at 6 MPH (5 knots; 2.6 m/s)
Visibility: 10 or more miles (16+ km)
Ceiling: 11000 feet AGL
Clouds: scattered clouds at 8000 feet AGL
overcast cloud deck at 11000 feet AGL
Weather: automated observation with no human augmentation;
there may or may not be significant weather present at this time
Translated TAF for KRTN

There is no translated TAF available for this airport

Find All Airport Services Find A Hotel Find A Rental Car Find A Golf Course Find A Restaurant $100 Hamburger



FBO's on the Field
FBO Company Facility Photos Services Transportation Aviation Fuel Prices: Prices include tax
Catering Weather Repair Courtesy Rental Type 100LL JetA JetA+ MOGAS 8087
 
Pegasus Aviation

This FBO has not yet been rated
FS:Phillips66
Last Updated: Aug-14
Login to update fuel prices
SS:
Contact Pegasus AviationMore FBO Information
 
Add another FBO Facility Photos Catering Weather Repair Courtesy Rental Type 100LL JetA JetA+ MOGAS 8087
Services Transportation Aviation Fuel Prices: Prices include tax


GlobalAir.com Airport Resource Center model-print
model-print
model-print
model-print